Regional Weather Roundup
Issued by NWS

Home | Current Version | Previous Version | Text Only | Print | Product List | Glossary Off
Versions: 1 2 3 4 5 6 7 8 9 10 11 12 13 14 15 16 17 18 19 20 21 22 23 24 25 26 27 28 29 30 31 32 33 34 35 36 37 38 39 40 41 42 43 44 45 46 47 48 49 50

000
ASUS45 KTFX 230710
RWRMT
MONTANA REGIONAL WEATHER ROUNDUP
NATIONAL WEATHER SERVICE GREAT FALLS MT
100 AM MDT MON OCT 23 2017

NOTE: "FAIR" INDICATES FEW OR NO CLOUDS BELOW 12000 FEET WITH NO
SIGNIFICANT WEATHER AND/OR OBSTRUCTIONS TO VISIBILITY.

MTZ001>007-043-230800-
WEST OF THE DIVIDE

CITY           SKY/WX    TMP DP  RH WIND       PRES   REMARKS
KALISPELL      PTCLDY    40  32  73 SE6       30.33R
MISSOULA       CLOUDY    42  39  89 N5        30.41R
BUTTE          CLOUDY    40  27  59 W9        30.37R
MULLAN PASS    MOCLDY    33  28  81 MISG      30.38R
ANACONDA         N/A     39  30  70 W8G16     30.37R
DEER LODGE       N/A     37  32  81 CALM      30.39R
EUREKA           N/A     48  28  46 MISG      30.31R
HAMILTON         N/A     45  30  57 SE5       30.41R
LIBBY            N/A     43  32  65 CALM      30.32S
PLAINS           N/A     49  32  52 CALM      30.36
$$

MTZ008-052>055-230800-
SOUTHWEST MONTANA

CITY           SKY/WX    TMP DP  RH WIND       PRES   REMARKS
BOZEMAN        CLOUDY    44  25  47 W12       30.36R
DILLON         CLOUDY    41  23  48 SW9       30.37S
W YELLOWSTONE  CLOUDY    36  19  51 W8        30.40R WCI  29
ENNIS          CLOUDY    39  25  56 SE5       30.44S
THREE FORKS      N/A     44  25  47 CALM      30.31R
TWIN BRIDGES     N/A     41  25  53 CALM      30.32
$$

MTZ009-010-012-014-046-048-049-054-230800-
EAST SLOPES AND CENTRAL MONTANA

CITY           SKY/WX    TMP DP  RH WIND       PRES   REMARKS
CUT BANK       PTCLDY    42  26  53 W23G30    30.15R
GREAT FALLS    CLEAR     45  23  42 W24G36    30.19R
MALMSTROM AFB  CLEAR     46  25  44 W18G29    30.20R
HELENA         CLOUDY    45  31  58 W12       30.33S
BOWMANS CRNR     N/A     43  22  43 W21G30    30.22R
CHOTEAU          N/A     46  23  39 W25G33    30.20R
FAIRFIELD        N/A     43  26  50 W21G30    30.19R
POWER            N/A     42  26  55 W22G29    30.18R
RAYNESFORD       N/A     44  24  44 SW23G33   30.19R
ULM              N/A     46  23  39 W24G31    30.21R
$$

MTZ011-013-016-021-045-047-050-051-230800-
NORTH CENTRAL MONTANA

CITY           SKY/WX    TMP DP  RH WIND       PRES   REMARKS
HAVRE          CLEAR     37  28  70 W8        30.10R WCI  31
LEWISTOWN      CLEAR     44  21  40 W17G26    30.17R
N BAR RANCH      N/A     43  18  36 W17G24    30.18R
CHINOOK          N/A     43  28  56 SW13      30.08R
DENTON           N/A     45  24  44 W23       30.13R
GEYSER           N/A     41  25  52 W21G28    30.18R
GRASS RANGE      N/A     47  21  36 W28G33    30.12R
JUDITH GAP       N/A     45  16  31 W28G40    30.18R
STANFORD         N/A     44  19  37 W21G33    30.18R
WINIFRED       CLOUDY    45  23  42 W12       30.14R
$$

MTZ017>020-022>027-061-062-230800-
NORTHEAST MONTANA

CITY           SKY/WX    TMP DP  RH WIND       PRES   REMARKS
GLASGOW        MOCLDY    43  37  79 W13       30.00R
JORDAN           N/A     47  27  45 NW21G30   30.05R
SIDNEY         MOCLDY    47  37  68 W25G35    29.89R
WOLF POINT     CLOUDY    48  38  68 W18       29.95R
MALTA          CLEAR     45  30  57 W21       30.05R
PLENTYWOOD       N/A     43  34  70 W14       29.86R
POPLAR           N/A     46  37  71 W18G25    29.93R
SCOBEY           N/A     43  30  60 W22       29.89R
$$

MTZ028>42-056>058-230800-
SOUTHCENTRAL AND SOUTHEAST MONTANA

CITY           SKY/WX    TMP DP  RH WIND       PRES   REMARKS
BAKER          MOCLDY    43  36  76 W15       30.01R
BILLINGS       CLEAR     47  25  42 W24G31    30.20R
LIVINGSTON     CLOUDY    44  25  47 W28G36    30.28F
MILES CITY     MOCLDY    49  28  44 W16       30.07R
BIG TIMBER     CLEAR     43  23  45 W23G30    30.28R
EKALAKA          N/A     45  24  43 W20       30.01R
FORSYTH          N/A     50  23  34 W14G20    30.11R
HARLOWTON        N/A     42  21  43 W28       30.22R
LAUREL           N/A     48  23  37 W23G31    30.23R
$$

REGIONAL REPORTS...DAKOTAS

CITY           SKY/WX    TMP DP  RH WIND       PRES   REMARKS
WILLISTON        N/A    N/A N/A N/A MISG      29.87R
MINOT          CLOUDY    49  33  54 W24G30    29.73R
DICKINSON      CLOUDY    47  36  65 W29G41    29.86R
BEACH          CLOUDY    45  37  76 NW23G29   29.98R
CROSBY           N/A     39  34  81 NW14      29.83R WCI  31
TIOGA            N/A     45  32  61 W16G23    29.82R
BISMARCK       CLOUDY    52  40  63 NW15      29.79R
GRAND FORKS    LGT RAIN  56  48  74 W21G30    29.57R
FARGO          CLOUDY    50  40  68 SW8       29.63F
BUFFALO SD       N/A     47  31  53 NW24      29.93R
RAPID CITY     CLOUDY    54  23  30 NW33G43   30.03R
$$

REGIONAL REPORTS...WYOMING/IDAHO/WASHINGTON

CITY           SKY/WX    TMP DP  RH WIND       PRES   REMARKS
GILLETTE       CLEAR     47  23  38 NW23G31   30.16R
SHERIDAN       PTCLDY    47  25  42 NW23      30.18R
BUFFALO WY     LGT RAIN  47  21  35 N29G43    30.18R
CODY           CLOUDY    41  26  55 CALM      30.24R
YELLOWSTONE LA   N/A     32  23  69 VRB7      30.39R WCI  26
IDAHO FALLS    CLOUDY    45  39  79 S6        30.40R
SALMON         CLOUDY    40  33  76 CALM      30.43R
BOISE          PTCLDY    46  44  93 CALM      30.46R
SPOKANE        PTCLDY    42  36  79 SW10      30.40R
$$

REGIONAL REPORTS...ALBERTA

CITY           SKY/WX    TMP DP  RH WIND       PRES   REMARKS
EDMONTON       PTCLDY    32  25  74 W9        29.94R WCI  24
CALGARY        PTCLDY    43  19  39 W6        30.05R
LETHBRIDGE     CLEAR     41  23  48 SW14      30.11R
MEDICINE HAT   PTCLDY    41  27  56 W14       30.03R
$$

REGIONAL REPORTS...SASKATCHEWAN

CITY           SKY/WX    TMP DP  RH WIND       PRES   REMARKS
SWIFT CURRENT  MOCLDY    37  30  75 W13       29.94R WCI  29
REGINA         LGT RAIN  39  37  93 NW15      29.83R WCI  31
SASKATOON      MOCLDY    37  34  87 W8        29.84R WCI  31
$$



USA.gov is the U.S. government's official web portal to all federal, state and local government web resources and services.